THY6XN LTFM-LTCJ

Flight info

Callsign THY6XN
Flight time 1h 31m
Altitude 35000
Route VICEN UT57 VEVUD UT341 BAG UL614 EZS UW104 ZUITA
Aircraft B738/M-SDE2E3FGHIRWXY/LB1

Departure

Time 2026-04-17 10:30
Airport İstanbul Airport (LTFM)

Arrival

Time 2026-04-17 12:01
Airport Batman Airport (LTCJ)
Time Latitude Longitude Altitude Speed Heading
2026-04-17 10:03 41.25905 28.74965 312 ft 0 kts 251°
2026-04-17 10:19 41.25910 28.74983 311 ft 2 kts 251°
2026-04-17 10:19 41.25915 28.75004 312 ft 2 kts 251°
2026-04-17 10:19 41.25920 28.75024 310 ft 2 kts 250°
2026-04-17 10:20 41.25927 28.75045 312 ft 2 kts 244°
2026-04-17 10:20 41.25936 28.75063 310 ft 2 kts 223°
2026-04-17 10:20 41.25949 28.75076 311 ft 2 kts 198°
2026-04-17 10:20 41.25966 28.75079 312 ft 2 kts 174°
2026-04-17 10:21 41.25976 28.75076 312 ft 1 kts 163°
2026-04-17 10:21 41.25977 28.75076 312 ft 0 kts 162°
2026-04-17 10:24 41.25976 28.75077 312 ft 1 kts 162°
2026-04-17 10:24 41.25962 28.75083 311 ft 3 kts 160°
2026-04-17 10:24 41.25937 28.75110 312 ft 6 kts 127°
2026-04-17 10:24 41.25929 28.75170 313 ft 7 kts 91°
2026-04-17 10:25 41.25930 28.75235 313 ft 7 kts 88°
2026-04-17 10:25 41.25931 28.75298 313 ft 7 kts 89°
2026-04-17 10:25 41.25937 28.75359 311 ft 7 kts 64°
2026-04-17 10:25 41.25975 28.75386 313 ft 6 kts
2026-04-17 10:26 41.26018 28.75385 313 ft 7 kts 359°
2026-04-17 10:26 41.26071 28.75384 314 ft 8 kts 359°
2026-04-17 10:26 41.26123 28.75383 314 ft 7 kts 359°
2026-04-17 10:26 41.26173 28.75383 312 ft 7 kts 359°
2026-04-17 10:27 41.26222 28.75385 312 ft 7 kts 15°
2026-04-17 10:27 41.26244 28.75435 313 ft 7 kts 89°
2026-04-17 10:27 41.26244 28.75468 313 ft 1 kts 90°
2026-04-17 10:27 41.26244 28.75477 313 ft 1 kts 90°
2026-04-17 10:28 41.26244 28.75498 313 ft 4 kts 90°
2026-04-17 10:28 41.26244 28.75556 313 ft 7 kts 90°
2026-04-17 10:28 41.26245 28.75624 314 ft 7 kts 87°
2026-04-17 10:28 41.26274 28.75668 315 ft 7 kts 11°
2026-04-17 10:29 41.26282 28.75668 315 ft 1 kts 359°
2026-04-17 10:29 41.26467 28.75665 310 ft 63 kts 359°
2026-04-17 10:29 41.27149 28.75654 300 ft 130 kts 359°
2026-04-17 10:29 41.28119 28.75646 413 ft 170 kts
2026-04-17 10:30 41.29376 28.75606 1006 ft 185 kts
2026-04-17 10:30 41.30575 28.76085 1965 ft 179 kts 34°
2026-04-17 10:30 41.31535 28.77045 3032 ft 168 kts 37°
2026-04-17 10:30 41.32529 28.77949 3688 ft 183 kts 35°
2026-04-17 10:31 41.33687 28.78922 3893 ft 211 kts 33°
2026-04-17 10:31 41.35010 28.79976 4235 ft 227 kts 32°
2026-04-17 10:31 41.36378 28.81079 4824 ft 231 kts 40°
2026-04-17 10:31 41.37456 28.82682 5365 ft 238 kts 57°
2026-04-17 10:32 41.38264 28.84669 5818 ft 253 kts 73°
2026-04-17 10:32 41.38420 28.87020 6610 ft 256 kts 88°
2026-04-17 10:32 41.38430 28.89420 7353 ft 262 kts 89°
2026-04-17 10:32 41.38036 28.91831 7971 ft 275 kts 116°
2026-04-17 10:33 41.36804 28.93804 8614 ft 286 kts 144°
2026-04-17 10:33 41.34965 28.94763 9326 ft 292 kts 174°
2026-04-17 10:33 41.32932 28.94848 10127 ft 294 kts 181°
2026-04-17 10:33 41.30839 28.94840 10566 ft 311 kts 181°
2026-04-17 10:34 41.28593 28.94844 10738 ft 335 kts 181°
2026-04-17 10:34 41.26181 28.94867 10917 ft 358 kts 181°
2026-04-17 10:34 41.23642 28.94813 11332 ft 370 kts 184°
2026-04-17 10:34 41.21061 28.94582 12034 ft 372 kts 186°
2026-04-17 10:35 41.18473 28.94302 12800 ft 374 kts 187°
2026-04-17 10:35 41.15869 28.94022 13514 ft 378 kts 187°
2026-04-17 10:35 41.13235 28.93754 14148 ft 381 kts 187°
2026-04-17 10:35 41.10580 28.93500 14778 ft 384 kts 186°
2026-04-17 10:36 41.07898 28.93250 15383 ft 388 kts 186°
2026-04-17 10:36 41.05188 28.93012 15966 ft 393 kts 184°
2026-04-17 10:36 41.02480 28.93509 16519 ft 403 kts 163°
2026-04-17 10:36 40.99954 28.95248 17131 ft 410 kts 143°
2026-04-17 10:37 40.97878 28.97801 17750 ft 414 kts 136°
2026-04-17 10:37 40.95840 29.00526 18273 ft 419 kts 136°
2026-04-17 10:37 40.93780 29.03296 18782 ft 422 kts 136°
2026-04-17 10:37 40.91703 29.06054 19355 ft 423 kts 136°
2026-04-17 10:38 40.89606 29.08798 19880 ft 426 kts 137°
2026-04-17 10:38 40.87486 29.11547 20377 ft 428 kts 137°
2026-04-17 10:38 40.85392 29.14378 20862 ft 433 kts 130°
2026-04-17 10:38 40.83876 29.17827 21315 ft 438 kts 111°
2026-04-17 10:39 40.83060 29.21708 21834 ft 440 kts 104°
2026-04-17 10:39 40.82356 29.25660 22292 ft 444 kts 104°
2026-04-17 10:39 40.81615 29.29631 22717 ft 447 kts 105°
2026-04-17 10:39 40.80838 29.33616 23155 ft 450 kts 105°
2026-04-17 10:40 40.80036 29.37631 23535 ft 454 kts 105°
2026-04-17 10:40 40.79226 29.41667 23911 ft 456 kts 105°
2026-04-17 10:40 40.78413 29.45722 24309 ft 458 kts 105°
2026-04-17 10:40 40.77600 29.49785 24687 ft 460 kts 105°
2026-04-17 10:41 40.76777 29.53890 25032 ft 463 kts 105°
2026-04-17 10:41 40.75953 29.57995 25368 ft 465 kts 105°
2026-04-17 10:41 40.75120 29.62139 25704 ft 468 kts 106°
2026-04-17 10:41 40.74282 29.66298 26046 ft 470 kts 106°
2026-04-17 10:42 40.73480 29.70427 26366 ft 473 kts 102°
2026-04-17 10:42 40.73148 29.74754 26662 ft 476 kts 92°
2026-04-17 10:42 40.73112 29.79131 26992 ft 478 kts 90°
2026-04-17 10:42 40.73120 29.83535 27287 ft 481 kts 90°
2026-04-17 10:43 40.73106 29.87963 27557 ft 484 kts 91°
2026-04-17 10:43 40.73055 29.92402 27842 ft 486 kts 91°
2026-04-17 10:43 40.72974 29.96857 28132 ft 488 kts 92°
2026-04-17 10:43 40.72881 30.01354 28415 ft 490 kts 92°
2026-04-17 10:44 40.72756 30.05849 28711 ft 492 kts 96°
2026-04-17 10:44 40.72030 30.10238 29047 ft 490 kts 110°
2026-04-17 10:44 40.70844 30.14433 29582 ft 486 kts 112°
2026-04-17 10:44 40.70054 30.17189 29883 ft 485 kts 111°
2026-04-17 10:45 40.68894 30.21370 30219 ft 486 kts 111°
2026-04-17 10:45 40.67774 30.25575 30506 ft 487 kts 110°
2026-04-17 10:45 40.66613 30.29763 30839 ft 485 kts 116°
2026-04-17 10:45 40.64847 30.33505 31147 ft 480 kts 130°
2026-04-17 10:46 40.62753 30.36914 31520 ft 478 kts 131°
2026-04-17 10:46 40.60647 30.40295 31820 ft 478 kts 131°
2026-04-17 10:46 40.58574 30.43714 32092 ft 478 kts 130°
2026-04-17 10:46 40.56533 30.47160 32417 ft 477 kts 129°
2026-04-17 10:47 40.54644 30.50739 32741 ft 478 kts 121°
2026-04-17 10:47 40.53157 30.54653 33018 ft 479 kts 113°
2026-04-17 10:47 40.52120 30.58820 33292 ft 481 kts 104°
2026-04-17 10:47 40.51405 30.63111 33616 ft 479 kts 102°
2026-04-17 10:48 40.50713 30.67395 33920 ft 479 kts 103°
2026-04-17 10:48 40.49987 30.71619 34149 ft 479 kts 103°
2026-04-17 10:48 40.49164 30.75849 34375 ft 478 kts 107°
2026-04-17 10:48 40.48208 30.80025 34648 ft 477 kts 108°
2026-04-17 10:49 40.47205 30.84179 34922 ft 476 kts 108°
2026-04-17 10:49 40.45178 30.92509 34946 ft 480 kts 108°
2026-04-17 10:50 40.43180 31.00869 34919 ft 478 kts 108°
2026-04-17 10:50 40.41209 31.09172 34925 ft 476 kts 108°
2026-04-17 10:51 40.39237 31.17449 34922 ft 474 kts 108°
2026-04-17 10:51 40.37415 31.25752 34925 ft 474 kts 103°
2026-04-17 10:52 40.36061 31.34207 34913 ft 474 kts 101°
2026-04-17 10:52 40.34765 31.42635 34918 ft 475 kts 102°
2026-04-17 10:53 40.33404 31.51128 34912 ft 477 kts 102°
2026-04-17 10:53 40.32006 31.59670 35175 ft 480 kts 102°
2026-04-17 10:53 40.31305 31.63932 35488 ft 478 kts 102°
2026-04-17 10:54 40.30603 31.68187 35740 ft 477 kts 102°
2026-04-17 10:54 40.29899 31.72430 35911 ft 478 kts 102°
2026-04-17 10:54 40.29191 31.76689 36121 ft 478 kts 102°
2026-04-17 10:54 40.28485 31.80927 36365 ft 477 kts 103°
2026-04-17 10:55 40.27778 31.85172 36586 ft 476 kts 103°
2026-04-17 10:55 40.27068 31.89420 36749 ft 477 kts 103°
2026-04-17 10:55 40.26320 31.93640 36882 ft 476 kts 105°
2026-04-17 10:56 40.24552 32.01965 36911 ft 478 kts 107°
2026-04-17 10:56 40.22677 32.10314 36919 ft 477 kts 107°
2026-04-17 10:57 40.20828 32.18650 36909 ft 477 kts 107°
2026-04-17 10:57 40.19001 32.26974 36929 ft 476 kts 107°
2026-04-17 10:58 40.17173 32.35302 36909 ft 476 kts 107°
2026-04-17 10:58 40.15340 32.43615 36908 ft 476 kts 107°
2026-04-17 10:59 40.13501 32.51918 36908 ft 476 kts 107°
2026-04-17 10:59 40.11654 32.60222 36927 ft 476 kts 107°
2026-04-17 11:00 40.09809 32.68481 36932 ft 477 kts 107°
2026-04-17 11:00 40.07947 32.76796 36930 ft 478 kts 107°
2026-04-17 11:01 40.05906 32.85057 36931 ft 478 kts 111°
2026-04-17 11:01 40.03510 32.93154 36938 ft 479 kts 112°
2026-04-17 11:02 40.01062 33.01276 36949 ft 481 kts 112°
2026-04-17 11:02 39.98633 33.09421 36939 ft 483 kts 112°
2026-04-17 11:03 39.96207 33.17617 36939 ft 484 kts 112°
2026-04-17 11:03 39.93783 33.25791 36935 ft 483 kts 112°
2026-04-17 11:04 39.91367 33.33893 36926 ft 483 kts 112°
2026-04-17 11:04 39.88931 33.42025 36941 ft 482 kts 112°
2026-04-17 11:05 39.86495 33.50153 36927 ft 481 kts 112°
2026-04-17 11:05 39.84061 33.58258 36928 ft 480 kts 112°
2026-04-17 11:06 39.81974 33.66496 36943 ft 480 kts 105°
2026-04-17 11:06 39.80370 33.74911 36918 ft 479 kts 104°
2026-04-17 11:07 39.78711 33.83311 36925 ft 479 kts 105°
2026-04-17 11:07 39.76870 33.91619 36923 ft 478 kts 110°
2026-04-17 11:08 39.74566 33.99728 36920 ft 478 kts 111°
2026-04-17 11:08 39.72200 34.07822 36929 ft 479 kts 111°
2026-04-17 11:09 39.69882 34.15886 36916 ft 481 kts 111°
2026-04-17 11:09 39.67558 34.24029 36923 ft 481 kts 111°
2026-04-17 11:10 39.64052 34.36260 36924 ft 483 kts 111°
2026-04-17 11:10 39.61701 34.44432 36916 ft 484 kts 111°
2026-04-17 11:11 39.59352 34.52609 36918 ft 484 kts 111°
2026-04-17 11:11 39.56997 34.60785 36915 ft 484 kts 111°
2026-04-17 11:12 39.54632 34.68960 36910 ft 484 kts 111°
2026-04-17 11:12 39.52258 34.77122 36904 ft 484 kts 111°
2026-04-17 11:13 39.49890 34.85272 36907 ft 484 kts 111°
2026-04-17 11:13 39.47514 34.93417 36908 ft 483 kts 112°
2026-04-17 11:14 39.45132 35.01542 36901 ft 482 kts 112°
2026-04-17 11:14 39.42746 35.09653 36900 ft 482 kts 112°
2026-04-17 11:15 39.40377 35.17706 36903 ft 482 kts 112°
2026-04-17 11:15 39.38013 35.25817 36895 ft 482 kts 112°
2026-04-17 11:16 39.35670 35.33917 36896 ft 481 kts 111°
2026-04-17 11:16 39.33322 35.42022 36891 ft 481 kts 112°
2026-04-17 11:17 39.30964 35.50120 36895 ft 482 kts 112°
2026-04-17 11:17 39.28598 35.58229 36894 ft 482 kts 112°
2026-04-17 11:18 39.26219 35.66325 36900 ft 483 kts 112°
2026-04-17 11:18 39.23830 35.74428 36898 ft 484 kts 112°
2026-04-17 11:19 39.21438 35.82532 36891 ft 484 kts 112°
2026-04-17 11:19 39.19041 35.90637 36908 ft 483 kts 112°
2026-04-17 11:20 39.16652 35.98690 36908 ft 484 kts 112°
2026-04-17 11:20 39.14740 36.07010 36910 ft 486 kts 101°
2026-04-17 11:21 39.13680 36.15612 36912 ft 487 kts 99°
2026-04-17 11:21 39.12663 36.24236 36912 ft 488 kts 99°
2026-04-17 11:22 39.11595 36.32868 36917 ft 488 kts 100°
2026-04-17 11:22 39.10488 36.41505 36927 ft 489 kts 100°
2026-04-17 11:23 39.09368 36.50136 36928 ft 489 kts 100°
2026-04-17 11:23 39.08251 36.58707 36887 ft 488 kts 102°
2026-04-17 11:24 39.07122 36.67316 36935 ft 487 kts 102°
2026-04-17 11:24 39.05992 36.75894 36941 ft 486 kts 102°
2026-04-17 11:25 39.04857 36.84466 36951 ft 486 kts 102°
2026-04-17 11:25 39.03716 36.93028 36956 ft 485 kts 102°
2026-04-17 11:26 39.02569 37.01586 36961 ft 485 kts 102°
2026-04-17 11:26 39.01424 37.10073 36965 ft 485 kts 102°
2026-04-17 11:27 39.00265 37.18620 36969 ft 485 kts 102°
2026-04-17 11:27 38.99101 37.27159 36971 ft 485 kts 102°
2026-04-17 11:28 38.97931 37.35696 36979 ft 485 kts 102°
2026-04-17 11:28 38.96751 37.44249 36990 ft 486 kts 102°
2026-04-17 11:29 38.95563 37.52811 36992 ft 487 kts 102°
2026-04-17 11:29 38.94367 37.61387 36995 ft 489 kts 102°
2026-04-17 11:30 38.93168 37.69939 36987 ft 490 kts 102°
2026-04-17 11:30 38.91952 37.78560 36996 ft 491 kts 102°
2026-04-17 11:31 38.90730 37.87182 36998 ft 491 kts 102°
2026-04-17 11:31 38.89499 37.95812 37004 ft 492 kts 102°
2026-04-17 11:32 38.88469 38.02995 37007 ft 492 kts 102°
2026-04-17 11:32 38.87225 38.11636 37007 ft 492 kts 102°
2026-04-17 11:33 38.85975 38.20273 37013 ft 492 kts 102°
2026-04-17 11:33 38.84718 38.28903 37008 ft 492 kts 102°
2026-04-17 11:34 38.83455 38.37534 37008 ft 491 kts 102°
2026-04-17 11:34 38.82189 38.46131 37003 ft 491 kts 102°
2026-04-17 11:35 38.80917 38.54729 37012 ft 490 kts 102°
2026-04-17 11:35 38.79642 38.63305 37008 ft 490 kts 102°
2026-04-17 11:36 38.78358 38.71893 37005 ft 491 kts 102°
2026-04-17 11:36 38.77066 38.80490 37026 ft 491 kts 102°
2026-04-17 11:37 38.75785 38.89042 37021 ft 492 kts 102°
2026-04-17 11:37 38.74498 38.97649 37021 ft 493 kts 102°
2026-04-17 11:38 38.73215 39.06306 36537 ft 499 kts 102°
2026-04-17 11:38 38.72570 39.10634 36269 ft 491 kts 102°
2026-04-17 11:38 38.71932 39.14903 35728 ft 488 kts 102°
2026-04-17 11:39 38.71021 39.19100 34975 ft 489 kts 114°
2026-04-17 11:39 38.69504 39.22985 34308 ft 486 kts 124°
2026-04-17 11:39 38.67503 39.26482 33393 ft 487 kts 136°
2026-04-17 11:39 38.65081 39.29464 32690 ft 483 kts 141°
2026-04-17 11:40 38.62577 39.32336 31941 ft 483 kts 142°
2026-04-17 11:40 38.60074 39.35209 31220 ft 484 kts 141°
2026-04-17 11:40 38.57578 39.38123 30493 ft 485 kts 141°
2026-04-17 11:40 38.55145 39.41005 29973 ft 481 kts 141°
2026-04-17 11:41 38.52701 39.43914 29361 ft 478 kts 140°
2026-04-17 11:41 38.50293 39.46787 28842 ft 472 kts 140°
2026-04-17 11:41 38.47901 39.49640 28300 ft 467 kts 140°
2026-04-17 11:41 38.45534 39.52458 27753 ft 463 kts 140°
2026-04-17 11:42 38.43187 39.55246 27254 ft 459 kts 140°
2026-04-17 11:42 38.40862 39.58003 26718 ft 455 kts 140°
2026-04-17 11:42 38.38553 39.60735 26204 ft 451 kts 140°
2026-04-17 11:42 38.36265 39.63443 25696 ft 447 kts 140°
2026-04-17 11:43 38.33991 39.66132 25192 ft 443 kts 141°
2026-04-17 11:43 38.31740 39.68789 24702 ft 440 kts 140°
2026-04-17 11:43 38.29504 39.71429 24200 ft 437 kts 140°
2026-04-17 11:43 38.27278 39.74059 23710 ft 435 kts 140°
2026-04-17 11:44 38.25068 39.76670 23112 ft 433 kts 140°
2026-04-17 11:44 38.22872 39.79262 22586 ft 429 kts 140°
2026-04-17 11:44 38.20688 39.81837 22074 ft 425 kts 140°
2026-04-17 11:44 38.18532 39.84378 21565 ft 421 kts 140°
2026-04-17 11:45 38.16395 39.86892 21070 ft 418 kts 140°
2026-04-17 11:45 38.14296 39.89359 20589 ft 414 kts 140°
2026-04-17 11:45 38.12159 39.91869 20102 ft 411 kts 140°
2026-04-17 11:45 38.10068 39.94323 19621 ft 408 kts 140°
2026-04-17 11:46 38.08014 39.96732 19149 ft 406 kts 140°
2026-04-17 11:46 38.05947 39.99153 18675 ft 404 kts 140°
2026-04-17 11:46 38.03884 40.01568 18148 ft 402 kts 140°
2026-04-17 11:46 38.01836 40.03963 17627 ft 400 kts 140°
2026-04-17 11:47 37.99795 40.06349 17121 ft 397 kts 140°
2026-04-17 11:47 37.97775 40.08709 16631 ft 393 kts 140°
2026-04-17 11:47 37.95771 40.11049 16162 ft 390 kts 140°
2026-04-17 11:47 37.93785 40.13366 15696 ft 386 kts 140°
2026-04-17 11:48 37.91810 40.15667 15235 ft 383 kts 140°
2026-04-17 11:48 37.89863 40.17940 14775 ft 380 kts 138°
2026-04-17 11:48 37.88139 40.20491 14298 ft 381 kts 126°
2026-04-17 11:48 37.86843 40.23400 13897 ft 379 kts 115°
2026-04-17 11:49 37.85979 40.26551 13411 ft 379 kts 107°
2026-04-17 11:49 37.85260 40.29749 12909 ft 377 kts 107°
2026-04-17 11:49 37.84555 40.32929 12431 ft 374 kts 107°
2026-04-17 11:49 37.83853 40.36082 11948 ft 371 kts 107°
2026-04-17 11:50 37.83148 40.39212 11481 ft 368 kts 107°
2026-04-17 11:50 37.82446 40.42308 11022 ft 365 kts 107°
2026-04-17 11:50 37.81751 40.45352 10843 ft 354 kts 107°
2026-04-17 11:50 37.81086 40.48259 10673 ft 343 kts 107°
2026-04-17 11:51 37.80430 40.51111 10508 ft 333 kts 108°
2026-04-17 11:51 37.79789 40.53888 10358 ft 324 kts 108°
2026-04-17 11:51 37.79168 40.56582 10224 ft 315 kts 108°
2026-04-17 11:51 37.78562 40.59202 10090 ft 306 kts 108°
2026-04-17 11:52 37.77970 40.61754 9975 ft 297 kts 108°
2026-04-17 11:52 37.77407 40.64200 9808 ft 285 kts 108°
2026-04-17 11:52 37.76849 40.66625 9350 ft 285 kts 108°
2026-04-17 11:52 37.76300 40.69003 9018 ft 279 kts 108°
2026-04-17 11:53 37.75756 40.71324 8719 ft 272 kts 108°
2026-04-17 11:53 37.75222 40.73598 8449 ft 269 kts 108°
2026-04-17 11:53 37.74694 40.75862 8184 ft 268 kts 108°
2026-04-17 11:53 37.74166 40.78119 7911 ft 267 kts 108°
2026-04-17 11:54 37.73641 40.80364 7642 ft 266 kts 108°
2026-04-17 11:54 37.73109 40.82605 7374 ft 267 kts 108°
2026-04-17 11:54 37.72592 40.84825 7091 ft 267 kts 108°
2026-04-17 11:54 37.72069 40.87073 6836 ft 268 kts 108°
2026-04-17 11:55 37.71542 40.89336 6540 ft 269 kts 108°
2026-04-17 11:55 37.71011 40.91598 6314 ft 267 kts 108°
2026-04-17 11:55 37.70490 40.93811 6170 ft 257 kts 108°
2026-04-17 11:55 37.70293 40.95961 6029 ft 242 kts 81°
2026-04-17 11:56 37.71039 40.97739 5913 ft 228 kts 42°
2026-04-17 11:56 37.72336 40.98854 5657 ft 224 kts 31°
2026-04-17 11:56 37.73696 40.99801 5377 ft 221 kts 27°
2026-04-17 11:56 37.75069 41.00663 5136 ft 219 kts 26°
2026-04-17 11:57 37.76404 41.01485 5076 ft 209 kts 26°
2026-04-17 11:57 37.77730 41.02299 4805 ft 213 kts 26°
2026-04-17 11:57 37.79070 41.03126 4500 ft 215 kts 26°
2026-04-17 11:57 37.80405 41.03948 4220 ft 213 kts 26°
2026-04-17 11:58 37.81707 41.04750 3957 ft 201 kts 26°
2026-04-17 11:58 37.82909 41.05491 3696 ft 188 kts 26°
2026-04-17 11:58 37.84038 41.06187 3487 ft 173 kts 26°
2026-04-17 11:58 37.85092 41.06836 3251 ft 164 kts 26°
2026-04-17 11:59 37.86096 41.07455 3042 ft 159 kts 26°
2026-04-17 11:59 37.87093 41.08068 2850 ft 163 kts 26°
2026-04-17 11:59 37.88104 41.08687 2595 ft 160 kts 25°
2026-04-17 11:59 37.89092 41.09297 2366 ft 158 kts 25°
2026-04-17 12:00 37.90069 41.09918 2163 ft 157 kts 25°
2026-04-17 12:00 37.91053 41.10542 1977 ft 159 kts 24°
2026-04-17 12:00 37.92030 41.11136 1824 ft 149 kts 22°
2026-04-17 12:00 37.92873 41.11641 1825 ft 114 kts 26°
2026-04-17 12:01 37.93456 41.11995 1833 ft 68 kts 25°
2026-04-17 12:01 37.93702 41.12144 1833 ft 28 kts 25°
2026-04-17 12:01 37.93836 41.12223 1834 ft 13 kts 26°
2026-04-17 12:01 37.93913 41.12270 1835 ft 12 kts 25°
2026-04-17 12:02 37.94001 41.12323 1835 ft 16 kts 25°
2026-04-17 12:02 37.94109 41.12373 1837 ft 16 kts
2026-04-17 12:02 37.94171 41.12353 1837 ft 8 kts 339°
2026-04-17 12:02 37.94225 41.12329 1836 ft 9 kts 342°
2026-04-17 12:03 37.94290 41.12303 1836 ft 11 kts 341°
2026-04-17 12:03 37.94367 41.12272 1836 ft 12 kts 342°
2026-04-17 12:03 37.94449 41.12237 1836 ft 12 kts 340°
2026-04-17 12:03 37.94505 41.12212 1836 ft 8 kts 333°
2026-04-17 12:04 37.94538 41.12169 1836 ft 5 kts 341°
2026-04-17 12:04 37.94565 41.12158 1836 ft 3 kts 341°
2026-04-17 12:04 37.94571 41.12156 1836 ft 0 kts 341°